Stündliche Wetter Bolshie Medvedki

Heute, 17 Juni, Donnerstag

Zeit Temperatur Niederschläge Wind Luftdruck Luftfeuchtigkeit
00:00 +16°C° 0 mm 3 m/S 743 mmHg 91%
01:00 +14°C° 0 mm 4 m/S 743 mmHg 90%
02:00 +14°C° 0 mm 4 m/S 744 mmHg 89%
03:00 +14°C° 0 mm 4 m/S 744 mmHg 88%
04:00 +14°C° 0 mm 4 m/S 744 mmHg 86%
05:00 +14°C° 0 mm 4 m/S 745 mmHg 85%
06:00 +14°C° 0 mm 4 m/S 745 mmHg 84%
07:00 +15°C° 0 mm 4 m/S 745 mmHg 77%
08:00 +16°C° 0 mm 5 m/S 746 mmHg 70%
09:00 +19°C° 0 mm 5 m/S 746 mmHg 64%
10:00 +20°C° 0 mm 5 m/S 746 mmHg 61%
11:00 +21°C° 0 mm 5 m/S 747 mmHg 58%
12:00 +22°C° 0 mm 5 m/S 747 mmHg 55%
13:00 +22°C° 0 mm 5 m/S 747 mmHg 55%
14:00 +22°C° 0 mm 5 m/S 747 mmHg 55%
15:00 +23°C° 0 mm 5 m/S 747 mmHg 55%
16:00 +22°C° 0 mm 5 m/S 747 mmHg 59%
17:00 +22°C° 0 mm 5 m/S 747 mmHg 64%
18:00 +21°C° 0 mm 4 m/S 747 mmHg 68%
19:00 +20°C° 0 mm 4 m/S 748 mmHg 74%
20:00 +18°C° 0 mm 4 m/S 748 mmHg 79%
21:00 +17°C° 0 mm 3 m/S 748 mmHg 85%
22:00 +16°C° 0 mm 3 m/S 748 mmHg 84%
23:00 +14°C° 0 mm 3 m/S 748 mmHg 84%

Morgen, 18 Juni, Freitag

Zeit Temperatur Niederschläge Wind Luftdruck Luftfeuchtigkeit
00:00 +13°C° 0 mm 3 m/S 749 mmHg 84%
01:00 +13°C° 0 mm 3 m/S 749 mmHg 84%
02:00 +12°C° 0 mm 3 m/S 749 mmHg 83%
03:00 +12°C° 0 mm 3 m/S 749 mmHg 83%
04:00 +12°C° 0 mm 3 m/S 749 mmHg 83%
05:00 +13°C° 0 mm 3 m/S 749 mmHg 82%
06:00 +13°C° 0 mm 3 m/S 750 mmHg 82%
07:00 +16°C° 0 mm 3 m/S 750 mmHg 77%
08:00 +18°C° 0 mm 4 m/S 750 mmHg 72%
09:00 +19°C° 0 mm 4 m/S 750 mmHg 67%
10:00 +20°C° 0 mm 4 m/S 750 mmHg 64%
11:00 +21°C° 0 mm 4 m/S 750 mmHg 60%
12:00 +22°C° 0 mm 5 m/S 750 mmHg 57%
13:00 +22°C° 0 mm 4 m/S 750 mmHg 57%
14:00 +23°C° 0 mm 4 m/S 750 mmHg 57%
15:00 +23°C° 0 mm 4 m/S 750 mmHg 57%
16:00 +23°C° 0 mm 4 m/S 750 mmHg 61%
17:00 +22°C° 0 mm 4 m/S 750 mmHg 64%
18:00 +22°C° 0 mm 3 m/S 750 mmHg 68%
19:00 +20°C° 0 mm 3 m/S 750 mmHg 73%
20:00 +19°C° 0 mm 3 m/S 750 mmHg 78%
21:00 +17°C° 0 mm 3 m/S 750 mmHg 83%
22:00 +16°C° 0 mm 2 m/S 750 mmHg 84%
23:00 +16°C° 0 mm 2 m/S 750 mmHg 86%

übermorgen, 19 Juni, Samstag

Zeit Temperatur Niederschläge Wind Luftdruck Luftfeuchtigkeit
00:00 +15°C° 0 mm 2 m/S 750 mmHg 87%
01:00 +14°C° 0 mm 2 m/S 750 mmHg 87%
02:00 +14°C° 0 mm 2 m/S 750 mmHg 88%
03:00 +14°C° 0 mm 2 m/S 750 mmHg 89%
04:00 +14°C° 0 mm 2 m/S 751 mmHg 88%
05:00 +15°C° 0 mm 2 m/S 751 mmHg 87%
06:00 +15°C° 0 mm 2 m/S 751 mmHg 86%
07:00 +17°C° 0 mm 2 m/S 751 mmHg 80%
08:00 +18°C° 0 mm 3 m/S 751 mmHg 75%
09:00 +20°C° 0 mm 3 m/S 751 mmHg 69%
10:00 +21°C° 0 mm 3 m/S 751 mmHg 65%
11:00 +22°C° 0 mm 4 m/S 751 mmHg 62%
12:00 +23°C° 0 mm 4 m/S 750 mmHg 59%
13:00 +23°C° 0 mm 4 m/S 750 mmHg 58%
14:00 +23°C° 0 mm 4 m/S 750 mmHg 57%
15:00 +25°C° 0 mm 4 m/S 750 mmHg 56%
16:00 +24°C° 0 mm 3 m/S 749 mmHg 59%
17:00 +24°C° 0 mm 3 m/S 749 mmHg 63%
18:00 +24°C° 0 mm 2 m/S 749 mmHg 67%
19:00 +21°C° 0 mm 2 m/S 749 mmHg 71%
20:00 +19°C° 0 mm 2 m/S 749 mmHg 76%
21:00 +18°C° 0 mm 2 m/S 749 mmHg 81%
22:00 +17°C° 0 mm 2 m/S 749 mmHg 83%
23:00 +16°C° 0 mm 2 m/S 749 mmHg 85%

20 Juni, Sonntag

Zeit Temperatur Niederschläge Wind Luftdruck Luftfeuchtigkeit
00:00 +16°C° 0 mm 2 m/S 749 mmHg 87%
01:00 +15°C° 0 mm 2 m/S 749 mmHg 88%
02:00 +15°C° 0 mm 2 m/S 749 mmHg 88%
03:00 +14°C° 0 mm 2 m/S 749 mmHg 89%
04:00 +15°C° 0 mm 2 m/S 749 mmHg 88%
05:00 +16°C° 0 mm 2 m/S 749 mmHg 87%
06:00 +16°C° 0 mm 2 m/S 749 mmHg 86%
07:00 +18°C° 0 mm 2 m/S 749 mmHg 80%
08:00 +19°C° 0 mm 2 m/S 749 mmHg 74%
09:00 +21°C° 0 mm 3 m/S 749 mmHg 68%
10:00 +22°C° 0 mm 3 m/S 749 mmHg 64%
11:00 +24°C° 0 mm 3 m/S 749 mmHg 60%
12:00 +25°C° 0 mm 3 m/S 749 mmHg 56%
13:00 +26°C° 0 mm 3 m/S 748 mmHg 55%
14:00 +26°C° 0 mm 3 m/S 748 mmHg 54%
15:00 +27°C° 0 mm 3 m/S 748 mmHg 53%
16:00 +26°C° 0 mm 3 m/S 748 mmHg 58%
17:00 +26°C° 0 mm 2 m/S 747 mmHg 63%
18:00 +26°C° 0 mm 2 m/S 747 mmHg 67%
19:00 +24°C° 0 mm 2 m/S 747 mmHg 72%
20:00 +21°C° 0 mm 2 m/S 747 mmHg 77%
21:00 +20°C° 0 mm 2 m/S 747 mmHg 82%
22:00 +19°C° 0 mm 2 m/S 747 mmHg 84%
23:00 +18°C° 0 mm 2 m/S 747 mmHg 86%

21 Juni, Montag

Zeit Temperatur Niederschläge Wind Luftdruck Luftfeuchtigkeit
00:00 +18°C° 0 mm 2 m/S 747 mmHg 88%
01:00 +17°C° 0 mm 2 m/S 747 mmHg 88%
02:00 +17°C° 0 mm 2 m/S 746 mmHg 89%
03:00 +17°C° 0 mm 2 m/S 746 mmHg 90%
04:00 +17°C° 0 mm 2 m/S 747 mmHg 89%
05:00 +18°C° 0 mm 2 m/S 747 mmHg 89%
06:00 +18°C° 0 mm 2 m/S 747 mmHg 88%
07:00 +20°C° 0 mm 2 m/S 747 mmHg 82%
08:00 +22°C° 0 mm 3 m/S 747 mmHg 77%
09:00 +24°C° 0 mm 3 m/S 747 mmHg 71%
10:00 +25°C° 0 mm 3 m/S 747 mmHg 67%
11:00 +27°C° 0 mm 3 m/S 747 mmHg 63%
12:00 +28°C° 0 mm 3 m/S 747 mmHg 59%
13:00 +28°C° 0 mm 3 m/S 746 mmHg 57%
14:00 +29°C° 0 mm 3 m/S 746 mmHg 56%
15:00 +29°C° 0 mm 3 m/S 746 mmHg 55%
16:00 +29°C° 0 mm 3 m/S 746 mmHg 59%
17:00 +29°C° 0 mm 3 m/S 746 mmHg 63%
18:00 +28°C° 0 mm 3 m/S 746 mmHg 67%
19:00 +27°C° 0 mm 3 m/S 746 mmHg 72%
20:00 +25°C° 0 mm 2 m/S 746 mmHg 78%
21:00 +23°C° 0 mm 2 m/S 746 mmHg 83%
22:00 +23°C° 0 mm 2 m/S 746 mmHg 85%
23:00 +21°C° 0 mm 2 m/S 746 mmHg 86%

22 Juni, Dienstag

Zeit Temperatur Niederschläge Wind Luftdruck Luftfeuchtigkeit
00:00 +20°C° 0 mm 2 m/S 746 mmHg 88%
01:00 +20°C° 0 mm 2 m/S 746 mmHg 89%
02:00 +20°C° 0 mm 2 m/S 746 mmHg 89%
03:00 +19°C° 0 mm 2 m/S 746 mmHg 90%
04:00 +20°C° 0 mm 2 m/S 746 mmHg 89%
05:00 +20°C° 0 mm 2 m/S 746 mmHg 88%
06:00 +21°C° 0 mm 2 m/S 746 mmHg 87%
07:00 +23°C° 0 mm 2 m/S 746 mmHg 81%
08:00 +25°C° 0 mm 3 m/S 746 mmHg 75%
09:00 +26°C° 0 mm 3 m/S 747 mmHg 70%
10:00 +27°C° 0 mm 3 m/S 747 mmHg 66%
11:00 +28°C° 0 mm 3 m/S 747 mmHg 61%
12:00 +29°C° 0 mm 3 m/S 747 mmHg 57%
13:00 +30°C° 0 mm 3 m/S 747 mmHg 56%
14:00 +30°C° 0 mm 3 m/S 747 mmHg 54%
15:00 +31°C° 0 mm 3 m/S 746 mmHg 53%
16:00 +30°C° 0 mm 3 m/S 746 mmHg 57%
17:00 +30°C° 0 mm 2 m/S 746 mmHg 61%
18:00 +30°C° 0 mm 2 m/S 746 mmHg 65%
19:00 +28°C° 0 mm 2 m/S 746 mmHg 70%
20:00 +26°C° 0 mm 2 m/S 746 mmHg 74%
21:00 +25°C° 0 mm 2 m/S 746 mmHg 79%
22:00 +24°C° 0 mm 2 m/S 746 mmHg 81%
23:00 +23°C° 0 mm 2 m/S 746 mmHg 83%
Mehr zeigen

Wir brauchen deine Erlaubnis

Meteoprog und unser Service Anbieter werden persönliche Daten aufbewahren, so wie Cookies, Geräte Bezeichnung oder ähnliche Technologien von deinem Gerät und Prozess, so wie Persönliche Daten Inhalte und Werbungen, genauso wie social Media und den Verkehr zu analysieren.

  • Aufbewahrung und/oder Zugang zu deiner Geräte Informationen.

    Cookies, Geräte Bezeichnung oder andere Informationen, können aufbewahrt oder Zugang zu deinem Gerät erhalten, für den Grund, der oben angegeben wird.

  • Personalisierte Werbung und Inhalte, Messungen, Einblick in das Publikum und Produkt Entwicklung.

    Werbungen und Inhalte können personalisiert werden, basierend auf ein Profil. Mehr Daten können besser personalisierte Werbungen und Inhalte hinzufügen. Werbung und Inhalte können gezeigt und gemessen werden. Einblicke über das Publikum, welche die Werbung gesehen haben und den Inhalt, können abgeleitet werden. So wie Daten können genutzt werden, um es zu verbessern oder die Benutzer Erfahrung zu verbessern das System und die Software.

Wenn du “Ich stimme zu” klickst, erlaubst du uns, die Cookies zu benutzen die Geräte Bezeichnung, den Web oder ähnliche Technologien zu benutzen. Deine Settings, können in deinem Gerät bei deinem Browser geändert werden.

Für den bestimmten Zweck, berechtigten Interessen beruhen darauf, mehr als auf den Inhalt. Du kannst mehr darüber in unseren Privaten und Cookie Politik lesen.